TimeCDT,TemperatureF,Dew PointF,Humidity,Sea Level PressureIn,VisibilityMPH,Wind Direction,Wind SpeedMPH,Gust SpeedMPH,PrecipitationIn,Events,Conditions,WindDirDegrees,DateUTC
12:14 AM,64.8,60.3,85,29.55,10.0,SE,5.8,-,N/A,,Mostly Cloudy,140,2013-05-20 05:14:00
12:34 AM,64.8,60.1,85,29.55,10.0,ESE,9.2,-,N/A,Rain,Light Rain,120,2013-05-20 05:34:00
12:53 AM,64.6,60.1,85,29.58,10.0,SW,10.4,-,0.02,Rain-Thunderstorm,Thunderstorms and Rain,220,2013-05-20 05:53:00
1:13 AM,64.4,60.4,87,29.58,7.0,SSE,10.4,-,0.02,Rain-Thunderstorm,Thunderstorms and Rain,150,2013-05-20 06:13:00
1:34 AM,64.0,60.3,87,29.56,7.0,SE,9.2,-,0.08,Rain-Thunderstorm,Rain,130,2013-05-20 06:34:00
1:53 AM,64.0,60.3,87,29.55,10.0,ESE,10.4,-,0.11,Rain,Rain,120,2013-05-20 06:53:00
2:14 AM,63.9,59.9,87,29.55,10.0,SE,9.2,-,N/A,Rain,Light Rain,140,2013-05-20 07:14:00
2:33 AM,63.7,59.5,86,29.56,10.0,SSE,12.7,17.3,0.01,Rain,Light Rain,150,2013-05-20 07:33:00
3:13 AM,63.5,59.9,88,29.53,10.0,SSE,9.2,-,N/A,,Overcast,160,2013-05-20 08:13:00
3:33 AM,63.7,59.9,87,29.52,10.0,South,10.4,-,N/A,,Mostly Cloudy,170,2013-05-20 08:33:00
3:54 AM,63.7,59.9,87,29.51,10.0,SSE,8.1,-,N/A,,Mostly Cloudy,150,2013-05-20 08:54:00
4:13 AM,63.5,59.5,87,29.52,10.0,South,9.2,-,N/A,,Scattered Clouds,170,2013-05-20 09:13:00
4:33 AM,63.1,59.5,88,29.50,10.0,SSE,6.9,-,N/A,,Scattered Clouds,150,2013-05-20 09:33:00
4:54 AM,62.6,59.0,88,29.50,10.0,South,8.1,-,N/A,,Scattered Clouds,170,2013-05-20 09:54:00
5:13 AM,62.6,59.0,88,29.52,10.0,SSE,5.8,-,N/A,,Clear,150,2013-05-20 10:13:00
5:33 AM,62.2,58.6,88,29.53,10.0,SE,6.9,-,N/A,,Scattered Clouds,140,2013-05-20 10:33:00
5:54 AM,62.6,59.0,88,29.54,10.0,SSE,8.1,-,N/A,,Mostly Cloudy,150,2013-05-20 10:54:00
6:13 AM,63.0,59.0,87,29.54,10.0,SSE,11.5,16.1,N/A,,Overcast,160,2013-05-20 11:13:00
6:33 AM,63.5,59.0,85,29.55,10.0,South,11.5,-,N/A,,Overcast,170,2013-05-20 11:33:00
7:13 AM,63.5,58.6,84,29.55,10.0,South,9.2,-,N/A,,Overcast,170,2013-05-20 12:13:00
7:34 AM,63.9,58.1,81,29.55,10.0,South,12.7,18.4,N/A,,Mostly Cloudy,180,2013-05-20 12:34:00
7:53 AM,64.8,58.5,80,29.55,10.0,South,11.5,17.3,N/A,,Scattered Clouds,190,2013-05-20 12:53:00
8:13 AM,65.7,59.0,79,29.56,10.0,SSW,11.5,16.1,N/A,,Scattered Clouds,200,2013-05-20 13:13:00
8:34 AM,65.7,58.6,78,29.56,10.0,South,10.4,-,N/A,,Mostly Cloudy,190,2013-05-20 13:34:00
9:13 AM,65.7,57.9,76,29.56,10.0,South,13.8,18.4,N/A,,Mostly Cloudy,170,2013-05-20 14:13:00
9:34 AM,66.6,58.1,74,29.56,10.0,South,12.7,-,N/A,,Overcast,170,2013-05-20 14:34:00
9:53 AM,66.2,58.1,75,29.56,10.0,South,9.2,-,N/A,,Overcast,180,2013-05-20 14:53:00
10:34 AM,66.7,58.6,75,29.55,10.0,SSE,11.5,-,N/A,,Overcast,150,2013-05-20 15:34:00
10:53 AM,67.6,58.8,73,29.55,10.0,South,12.7,-,N/A,,Overcast,170,2013-05-20 15:53:00
11:13 AM,68.0,59.0,73,29.55,10.0,South,11.5,-,N/A,,Mostly Cloudy,170,2013-05-20 16:13:00
11:34 AM,69.3,59.0,70,29.55,10.0,SSE,15.0,21.9,N/A,,Overcast,160,2013-05-20 16:34:00
11:53 AM,68.9,57.9,68,29.55,10.0,South,13.8,20.7,N/A,,Overcast,190,2013-05-20 16:53:00
12:13 PM,69.3,58.6,69,29.55,10.0,South,12.7,-,N/A,,Overcast,170,2013-05-20 17:13:00
12:34 PM,66.2,59.0,78,29.55,7.0,South,8.1,-,N/A,Rain,Heavy Rain,190,2013-05-20 17:34:00
1:14 PM,63.0,58.5,85,29.56,4.0,SSW,12.7,21.9,0.03,Rain,Light Rain,210,2013-05-20 18:14:00
1:53 PM,67.8,60.1,76,29.56,10.0,SSW,17.3,27.6,0.04,,Overcast,200,2013-05-20 18:53:00
2:14 PM,69.4,60.6,73,29.56,10.0,SSW,15.0,21.9,N/A,,Mostly Cloudy,200,2013-05-20 19:14:00
2:34 PM,71.4,60.8,69,29.56,10.0,SSW,23.0,27.6,N/A,,Scattered Clouds,210,2013-05-20 19:34:00
2:53 PM,70.9,59.7,68,29.57,10.0,SSW,12.7,28.8,N/A,,Mostly Cloudy,200,2013-05-20 19:53:00
3:14 PM,70.3,58.8,67,29.58,10.0,SSW,18.4,25.3,N/A,,Mostly Cloudy,200,2013-05-20 20:14:00
3:33 PM,71.8,59.2,64,29.58,10.0,SSW,19.6,28.8,N/A,,Scattered Clouds,200,2013-05-20 20:33:00
3:54 PM,71.4,58.6,64,29.58,10.0,SSW,16.1,24.2,N/A,,Scattered Clouds,200,2013-05-20 20:54:00
4:13 PM,69.4,57.2,65,29.58,10.0,SSW,20.7,26.5,N/A,,Mostly Cloudy,210,2013-05-20 21:13:00
4:34 PM,70.5,56.3,61,29.59,10.0,SSW,18.4,24.2,N/A,,Mostly Cloudy,210,2013-05-20 21:34:00
4:54 PM,70.7,57.4,63,29.58,10.0,SSW,21.9,27.6,N/A,,Scattered Clouds,210,2013-05-20 21:54:00
5:13 PM,70.3,57.2,63,29.59,10.0,SSW,18.4,25.3,N/A,,Scattered Clouds,210,2013-05-20 22:13:00
5:34 PM,69.8,57.0,64,29.59,10.0,South,9.2,-,N/A,,Overcast,190,2013-05-20 22:34:00
5:53 PM,70.0,57.7,65,29.59,10.0,South,10.4,-,N/A,,Mostly Cloudy,180,2013-05-20 22:53:00
6:13 PM,69.8,57.9,66,29.58,10.0,South,9.2,-,N/A,,Overcast,180,2013-05-20 23:13:00
6:34 PM,69.4,57.7,66,29.58,10.0,South,8.1,-,N/A,,Overcast,180,2013-05-20 23:34:00
6:54 PM,70.0,58.1,66,29.58,10.0,South,5.8,-,N/A,,Mostly Cloudy,170,2013-05-20 23:54:00
7:13 PM,71.2,58.5,64,29.57,10.0,South,11.5,-,N/A,,Overcast,170,2013-05-21 00:13:00
7:34 PM,69.8,57.6,65,29.57,10.0,South,8.1,16.1,N/A,,Scattered Clouds,170,2013-05-21 00:34:00
7:54 PM,68.9,57.6,67,29.57,10.0,SSE,6.9,-,N/A,,Scattered Clouds,150,2013-05-21 00:54:00
8:13 PM,68.5,57.4,67,29.56,10.0,SSE,6.9,-,N/A,,Mostly Cloudy,150,2013-05-21 01:13:00
8:34 PM,68.4,57.4,68,29.56,10.0,SE,6.9,-,N/A,,Overcast,130,2013-05-21 01:34:00
9:13 PM,66.7,56.8,70,29.55,10.0,ESE,6.9,-,N/A,Thunderstorm,Clear,110,2013-05-21 02:13:00
9:34 PM,66.0,57.0,73,29.55,10.0,East,6.9,-,N/A,,Scattered Clouds,100,2013-05-21 02:34:00
9:53 PM,64.6,57.6,78,29.56,10.0,East,6.9,-,N/A,,Mostly Cloudy,100,2013-05-21 02:53:00
10:13 PM,64.6,57.2,77,29.55,10.0,East,6.9,-,N/A,Thunderstorm,Scattered Clouds,100,2013-05-21 03:13:00
10:33 PM,65.5,57.2,75,29.53,10.0,SE,4.6,-,N/A,,Scattered Clouds,130,2013-05-21 03:33:00
10:54 PM,61.7,56.5,83,29.56,7.0,West,6.9,23.0,0.04,Rain,Light Rain,260,2013-05-21 03:54:00
11:13 PM,60.4,57.2,89,29.54,7.0,ENE,3.5,-,0.02,Rain,Light Rain,70,2013-05-21 04:13:00
11:33 PM,60.6,57.9,91,29.57,10.0,SSE,9.2,-,0.03,Rain,Light Rain,160,2013-05-21 04:33:00
11:54 PM,59.9,54.5,82,29.56,10.0,SE,6.9,16.1,0.06,Rain,Light Rain,140,2013-05-21 04:54:00